Regional Weather Roundup
Issued by NWS State College, PA

Home | Current Version | Previous Version | Text Only | Print | Product List | Glossary On
Versions: 1 2 3 4 5 6 7 8 9 10 11 12 13 14 15 16 17 18 19 20 21 22 23 24 25 26 27 28 29 30 31 32 33 34 35 36 37 38 39 40 41 42 43 44 45 46 47 48 49 50
000
ASUS41 KCTP 231203
RWRCTP

REGIONAL WEATHER ROUNDUP
NATIONAL WEATHER SERVICE STATE COLLEGE PA
800 AM EDT THU MAR 23 2017

Note: "fair" indicates few or no clouds below 12,000 feet with no
significant weather and/or obstructions to visibility.

* = STATION THAT DOES NOT REPORT PRECIPITATION /E.G. RAIN...SNOW...ETC/
    THUNDER OR FOG.

PAZ002>004-007>009-013>016-020>023-029>032-231300-
WESTERN PENNSYLVANIA

CITY           SKY/WX    TMP DP  RH WIND       PRES   REMARKS
ERIE           CLEAR     19  14  81 CALM      30.57R
MEADVILLE      CLEAR     18  13  80 CALM      30.52R
FRANKLIN*      CLEAR     16   9  73 CALM      30.53R
NEW CASTLE     FAIR      15  13  91 CALM      30.56S
BEAVER COUNTY  CLEAR     19  10  68 SE5       30.53F WCI  13
BUTLER*        CLEAR     16  10  79 CALM      30.55S
PITTSBURGH INT PTCLDY    18  12  77 CALM      30.53S
PITTSBURGH     CLEAR     21   6  52 E7        30.52F WCI  12
INDIANA*       CLEAR     16  12  86 CALM      30.57S
LATROBE        CLEAR     16  14  93 CALM      30.56S
WASHINGTON CO* CLEAR     16  12  86 CALM      30.54S
$$

PAZ004>006-010>012-017>019-024>028-033>037-041-042-045-046-049>053-231300-
CENTRAL PENNSYLVANIA

CITY           SKY/WX    TMP DP  RH WIND       PRES   REMARKS
BRADFORD       CLEAR      9   6  88 CALM      30.47R
DUBOIS         CLEAR     15   8  73 CALM      30.50R
CLEARFIELD       N/A    N/A N/A N/A MISG      30.54R
JOHNSTOWN      CLOUDY    17   6  62 CALM      30.46S
ALTOONA        CLEAR     19   9  65 CALM      30.54R
STATE COLLEGE  CLEAR     18   9  68 CALM      30.56R
WILLIAMSPORT   CLEAR     21  11  65 CALM      30.61R
SELINSGROVE    CLEAR     20  13  74 CALM      30.63R
FT INDIANTOWN  CLEAR     25   4  41 N3        30.61R
CAPITAL CITY   CLEAR     26   7  44 W3        30.63R
HARRISBURG     CLEAR     27   9  46 NW3       30.62R
YORK           CLEAR     19  15  84 CALM      30.61R
$$

PAZ038>040-043-044-047-048-054-055-060>062-067>071-231300-
EASTERN PENNSYLVANIA

CITY           SKY/WX    TMP DP  RH WIND       PRES   REMARKS
SCRANTON       SUNNY     19   7  59 CALM      30.56R
MOUNT POCONO   SUNNY     12   5  73 NW7       30.46R WCI   1
ALLENTOWN      SUNNY     23   7  50 NW6       30.60R
QUAKERTOWN*    SUNNY     23   9  54 N6        30.59R
READING        SUNNY     24   8  50 W6        30.61R
LANCASTER      CLEAR     22  10  60 W3        30.61R
COATESVILLE    SUNNY     23   5  46 N5        30.60R
POTTSTOWN      MOSUNNY   22   8  55 NW3       30.63R
BLUE BELL      MOSUNNY   23   9  54 NW5       30.60R
DOYLESTOWN     SUNNY     18   9  68 W7        30.59R WCI   9
WILLOW GROVE   NOT AVBL
NORTH PHILA    MOSUNNY   25   7  46 NW8       30.63R
PHILADELPHIA   NOT AVBL
$$




USA.gov is the U.S. government's official web portal to all federal, state and local government web resources and services.